Weather History for KJXN - December, 2013

Change the Weather History Date:

Wednesday, December 4, 2013

  Actual Average Record
Temperature  
Mean Temperature 49 °F 32 °F  
Max Temperature 59 °F 39 °F 63 °F (2012)
Min Temperature 38 °F 25 °F -2 °F (2002)
Degree Days  
Heating Degree Days 16 33  
Month to date heating degree days 101 130  
Since 1 July heating degree days 1572 1534  
Cooling Degree Days 0 0  
Month to date cooling degree days 0 0  
Year to date cooling degree days 616 592  
Moisture  
Dew Point 44 °F    
Average Humidity 92    
Maximum Humidity 100    
Minimum Humidity 83    
Precipitation  
Precipitation 0.06 in 0.07 in 0.56 in (1964)
Month to date precipitation 0.10 0.28  
Year to date precipitation 31.10 29.91  
Sea Level Pressure  
Sea Level Pressure 29.76 in    
Wind  
Wind Speed 10 mph (SSE)    
Max Wind Speed 21 mph    
Max Gust Speed 30 mph    
Visibility 3 miles    
Events Fog , Rain    
T = Trace of Precipitation, MM = Missing Value Source: NWS Daily Summary

Daily Weather History Graph

Daily Weather History Graph

Search for Another Location

Airport or City:

Trip Planner

Search our weather history database for the weather conditions in past years. The results will help you decide how hot, cold, wet, or windy it might be!

Date:

Astronomy

Dec. 04, 2013 Rise Set
Actual Time 7:50 AM EST 5:05 PM EST
Civil Twilight 7:18 AM EST 5:37 PM EST
Nautical Twilight 6:43 AM EST 6:12 PM EST
Astronomical Twilight 6:10 AM EST 6:46 PM EST
Moon 9:17 AM EST (12/4) 7:16 PM EST (12/4)
Length of Visible Light 10h 18m
Length of Day
9h 15m
Waxing Crescent, 4% of the Moon is Illuminated
Dec 4
Waxing Crescent
Dec 9
First Quarter
Dec 17
Full
Dec 25
Last Quarter
Jan 1
New

Hourly Weather History & Observations

Time (EST) Temp. Windchill Dew Point Humidity Pressure Visibility Wind Dir Wind Speed Gust Speed Precip Events Conditions
12:04 AM 39.0 °F 34.0 °F 36.0 °F 89% 29.83 in 4.0 mi SSE 6.9 mph - N/A   Overcast
12:45 AM 39.0 °F 34.0 °F 37.0 °F 93% 29.81 in 3.0 mi SSE 6.9 mph - N/A   Overcast
12:56 AM 39.0 °F 34.0 °F 37.0 °F 93% 29.83 in 3.0 mi SE 6.9 mph - N/A   Overcast
1:12 AM 37.9 °F 32.7 °F 37.0 °F 97% 29.80 in 3.0 mi SE 6.9 mph - N/A   Mostly Cloudy
1:20 AM 39.0 °F 34.8 °F 37.0 °F 93% 29.81 in 3.0 mi SSE 5.8 mph - N/A   Mostly Cloudy
1:36 AM 39.0 °F 34.8 °F 37.9 °F 96% 29.81 in 2.5 mi SSE 5.8 mph - N/A   Overcast
1:56 AM 39.9 °F 34.5 °F 37.9 °F 93% 29.82 in 1.2 mi SSE 8.1 mph - N/A   Overcast
2:05 AM 39.9 °F 33.4 °F 39.0 °F 97% 29.80 in 0.5 mi SSE 10.4 mph - N/A Fog Fog
2:56 AM 39.9 °F 37.8 °F 39.9 °F 100% 29.85 in 0.2 mi SSE 3.5 mph - N/A Fog Fog
3:56 AM 39.9 °F 35.8 °F 39.0 °F 97% 29.86 in 0.2 mi SSE 5.8 mph - N/A Fog Fog
4:56 AM 39.9 °F 35.1 °F 39.0 °F 97% 29.83 in 0.2 mi ESE 6.9 mph - N/A Fog Fog
5:10 AM 39.9 °F 35.1 °F 39.0 °F 97% 29.81 in 0.5 mi SE 6.9 mph - N/A Fog Fog
5:23 AM 39.9 °F 36.7 °F 39.0 °F 97% 29.83 in 1.2 mi SE 4.6 mph - N/A   Overcast
5:53 AM 39.2 °F 37.0 °F 39.2 °F 100% 29.84 in 2.0 mi ESE 3.5 mph - N/A   Overcast
5:56 AM 39.9 °F 35.8 °F 39.0 °F 97% 29.86 in 2.0 mi East 5.8 mph - N/A   Overcast
6:05 AM 39.9 °F 37.8 °F 39.0 °F 97% 29.84 in 2.0 mi ESE 3.5 mph - N/A   Overcast
6:56 AM 39.9 °F 35.8 °F 39.0 °F 97% 29.86 in 2.0 mi SE 5.8 mph - N/A   Overcast
7:56 AM 41.0 °F 38.0 °F 39.0 °F 93% 29.86 in 2.5 mi SE 4.6 mph - N/A   Overcast
8:23 AM 41.0 °F 37.1 °F 39.9 °F 96% 29.85 in 1.8 mi SE 5.8 mph - N/A   Overcast
8:33 AM 42.1 °F 37.7 °F 39.9 °F 92% 29.85 in 2.0 mi SSE 6.9 mph - N/A   Overcast
8:56 AM 42.1 °F 37.7 °F 39.9 °F 92% 29.87 in 2.0 mi SE 6.9 mph - N/A   Overcast
9:34 AM 43.0 °F 38.2 °F 41.0 °F 93% 29.84 in 2.5 mi SSE 8.1 mph - N/A   Overcast
9:56 AM 44.1 °F 39.5 °F 42.1 °F 93% 29.86 in 3.0 mi SE 8.1 mph - N/A   Overcast
10:30 AM 46.0 °F 41.4 °F 43.0 °F 89% 29.83 in 3.0 mi SE 9.2 mph - N/A   Overcast
10:56 AM 46.0 °F 41.9 °F 44.1 °F 93% 29.85 in 3.0 mi SE 8.1 mph - N/A   Overcast
11:32 AM 46.9 °F - 44.1 °F 90% 29.80 in 3.0 mi SE 6.9 mph - N/A   Overcast
11:56 AM 48.0 °F - 46.0 °F 93% 29.81 in 3.0 mi SE 8.1 mph - N/A   Overcast
12:30 PM 48.0 °F - 45.0 °F 89% 29.77 in 2.5 mi SSE 11.5 mph - N/A   Overcast
12:39 PM 46.9 °F - 45.0 °F 93% 29.77 in 1.8 mi SSE 12.7 mph - N/A   Overcast
12:56 PM 48.0 °F - 45.0 °F 89% 29.78 in 2.0 mi SE 10.4 mph - N/A   Overcast
1:25 PM 48.0 °F - 45.0 °F 89% 29.75 in 3.0 mi SE 8.1 mph - N/A   Overcast
1:56 PM 50.0 °F - 46.0 °F 86% 29.76 in 4.0 mi SSE 11.5 mph - N/A   Overcast
2:56 PM 51.1 °F - 46.9 °F 86% 29.74 in 4.0 mi SE 8.1 mph - N/A   Overcast
3:56 PM 51.1 °F - 48.0 °F 89% 29.70 in 4.0 mi SE 11.5 mph - N/A   Overcast
4:56 PM 51.1 °F - 48.9 °F 92% 29.68 in 4.0 mi SE 10.4 mph - 0.04 in Rain Light Rain
5:03 PM 51.1 °F - 48.9 °F 92% 29.67 in 5.0 mi SE 11.5 mph - 0.00 in Rain Light Rain
5:56 PM 52.0 °F - 50.0 °F 93% 29.68 in 4.0 mi SSE 12.7 mph - 0.01 in   Overcast
6:05 PM 52.0 °F - 50.0 °F 93% 29.66 in 3.0 mi SE 13.8 mph - N/A   Overcast
6:22 PM 52.0 °F - 50.0 °F 93% 29.67 in 2.5 mi SSE 12.7 mph - 0.00 in Rain Light Rain
6:30 PM 52.0 °F - 50.0 °F 93% 29.67 in 3.0 mi SSE 12.7 mph - 0.00 in   Overcast
6:56 PM 53.1 °F - 51.1 °F 93% 29.68 in 5.0 mi SSE 12.7 mph - 0.01 in   Overcast
7:56 PM 54.0 °F - 52.0 °F 93% 29.66 in 6.0 mi South 15.0 mph 18.4 mph N/A   Overcast
8:56 PM 55.0 °F - 53.1 °F 93% 29.64 in 6.0 mi South 13.8 mph - N/A   Overcast
9:56 PM 55.9 °F - 53.1 °F 90% 29.64 in 8.0 mi South 13.8 mph - N/A   Overcast
10:06 PM 57.0 °F - 54.0 °F 89% 29.62 in 8.0 mi South 13.8 mph - N/A   Overcast
10:56 PM 57.9 °F - 54.0 °F 87% 29.61 in 9.0 mi South 13.8 mph 25.3 mph N/A   Overcast
11:03 PM 57.9 °F - 54.0 °F 87% 29.61 in 9.0 mi SSW 15.0 mph - N/A   Overcast
11:11 PM 57.9 °F - 54.0 °F 87% 29.61 in 9.0 mi SSW 16.1 mph 24.2 mph N/A   Overcast
11:56 PM 59.0 °F - 54.0 °F 83% 29.60 in 9.0 mi SSW 16.1 mph 24.2 mph N/A   Overcast